Time,TemperatureF,DewpointF,PressureIn,WindDirection,WindDirectionDegrees,WindSpeedMPH,WindSpeedGustMPH,Humidity,HourlyPrecipIn,Conditions,Clouds,dailyrainin,SolarRadiationWatts/m^2,SoftwareType,DateUTC
2013-05-24 00:01:00,70.4,66.7,30.03,ENE,60,0.6,2.0,88,0.00,RA,,0.00,0.0,WeatherDisplay:10.37,2013-05-24 05:01:00,
2013-05-24 00:06:00,70.3,66.6,30.02,ENE,58,2.5,6.0,88,0.00,RA,,0.00,0.0,WeatherDisplay:10.37,2013-05-24 05:06:00,
2013-05-24 00:11:00,70.1,66.4,30.02,NE,52,1.4,3.5,88,0.00,CLR,,0.00,0.0,WeatherDisplay:10.37,2013-05-24 05:11:00,
2013-05-24 00:16:00,69.9,66.5,30.02,NE,52,1.0,4.6,89,0.00,CLR,,0.00,0.0,WeatherDisplay:10.37,2013-05-24 05:16:00,
2013-05-24 00:21:00,69.8,66.4,30.02,NE,52,1.0,3.5,89,0.00,CLR,,0.00,0.0,WeatherDisplay:10.37,2013-05-24 05:21:00,
2013-05-24 00:26:00,69.6,66.2,30.02,NE,52,0.7,3.5,89,0.00,CLR,,0.00,0.0,WeatherDisplay:10.37,2013-05-24 05:26:00,
2013-05-24 00:31:00,69.5,66.1,30.02,NE,52,2.3,3.5,89,0.00,CLR,,0.00,0.0,WeatherDisplay:10.37,2013-05-24 05:31:00,
2013-05-24 00:36:00,69.5,66.1,30.02,NE,52,0.1,3.5,89,0.00,CLR,,0.00,0.0,WeatherDisplay:10.37,2013-05-24 05:36:00,
2013-05-24 00:41:00,69.4,66.0,30.02,NE,52,0.0,0.0,89,0.00,CLR,,0.00,0.0,WeatherDisplay:10.37,2013-05-24 05:41:00,
2013-05-24 00:46:00,69.3,66.2,30.03,NE,52,2.4,4.6,90,0.00,CLR,,0.00,0.0,WeatherDisplay:10.37,2013-05-24 05:46:00,
2013-05-24 00:51:00,69.2,66.1,30.02,NE,52,0.6,3.5,90,0.00,CLR,,0.00,0.0,WeatherDisplay:10.37,2013-05-24 05:51:00,
2013-05-24 00:56:00,69.1,66.0,30.03,NE,52,0.0,0.0,90,0.00,CLR,,0.00,0.0,WeatherDisplay:10.37,2013-05-24 05:56:00,
2013-05-24 01:01:00,69.2,66.1,30.03,NE,52,1.5,3.5,90,0.00,CLR,,0.00,0.0,WeatherDisplay:10.37,2013-05-24 06:01:00,
2013-05-24 01:06:00,69.2,66.1,30.03,NE,52,1.7,3.5,90,0.00,CLR,,0.00,0.0,WeatherDisplay:10.37,2013-05-24 06:06:00,
2013-05-24 01:11:00,69.1,66.0,30.02,NE,52,1.0,2.3,90,0.00,CLR,,0.00,0.0,WeatherDisplay:10.37,2013-05-24 06:11:00,
2013-05-24 01:16:00,69.0,65.6,30.02,NE,52,0.0,0.0,89,0.00,CLR,,0.00,0.0,WeatherDisplay:10.37,2013-05-24 06:16:00,
2013-05-24 01:21:00,69.0,65.6,30.03,NE,52,0.7,4.6,89,0.00,CLR,,0.00,0.0,WeatherDisplay:10.37,2013-05-24 06:21:00,
2013-05-24 01:26:00,69.0,65.6,30.03,NE,52,2.4,4.6,89,0.00,CLR,,0.00,0.0,WeatherDisplay:10.37,2013-05-24 06:26:00,
2013-05-24 01:31:00,68.9,65.5,30.03,ENE,66,1.7,5.8,89,0.00,CLR,,0.00,0.0,WeatherDisplay:10.37,2013-05-24 06:31:00,
2013-05-24 01:36:00,68.9,65.5,30.03,ENE,59,5.9,8.1,89,0.00,CLR,,0.00,0.0,WeatherDisplay:10.37,2013-05-24 06:36:00,
2013-05-24 01:41:00,68.8,65.4,30.03,NE,47,4.6,10.4,89,0.00,CLR,,0.00,0.0,WeatherDisplay:10.37,2013-05-24 06:41:00,
2013-05-24 01:46:00,68.7,65.6,30.03,NE,44,5.8,6.9,90,0.00,CLR,,0.00,0.0,WeatherDisplay:10.37,2013-05-24 06:46:00,
2013-05-24 01:51:00,68.5,65.4,30.03,NE,45,4.9,10.4,90,0.00,CLR,,0.00,0.0,WeatherDisplay:10.37,2013-05-24 06:51:00,
2013-05-24 01:56:00,68.3,65.3,30.03,NE,34,7.6,11.5,90,0.00,CLR,,0.00,0.0,WeatherDisplay:10.37,2013-05-24 06:56:00,
2013-05-24 02:01:00,68.1,65.1,30.03,NE,45,3.8,10.4,90,0.00,CLR,,0.00,0.0,WeatherDisplay:10.37,2013-05-24 07:01:00,
2013-05-24 02:06:00,67.8,65.1,30.03,NNE,16,4.5,11.5,91,0.00,CLR,,0.00,0.0,WeatherDisplay:10.37,2013-05-24 07:06:00,
2013-05-24 02:11:00,67.4,64.7,30.03,NE,35,7.1,11.5,91,0.00,CLR,,0.00,0.0,WeatherDisplay:10.37,2013-05-24 07:11:00,
2013-05-24 02:16:00,67.0,64.3,30.03,NE,44,4.8,11.5,91,0.00,CLR,,0.00,0.0,WeatherDisplay:10.37,2013-05-24 07:16:00,
2013-05-24 02:21:00,66.8,64.4,30.03,NE,55,5.4,10.0,92,0.00,CLR,,0.00,0.0,WeatherDisplay:10.37,2013-05-24 07:21:00,
2013-05-24 02:26:00,66.5,64.1,30.03,NE,43,3.9,10.4,92,0.00,CLR,,0.00,0.0,WeatherDisplay:10.37,2013-05-24 07:26:00,
2013-05-24 02:31:00,66.3,63.6,30.03,ENE,68,3.6,11.5,91,0.00,CLR,,0.00,0.0,WeatherDisplay:10.37,2013-05-24 07:31:00,
2013-05-24 02:36:00,66.0,63.3,30.04,NE,42,4.9,10.4,91,0.00,CLR,,0.00,0.0,WeatherDisplay:10.37,2013-05-24 07:36:00,
2013-05-24 02:41:00,65.7,63.0,30.04,NE,43,4.5,9.2,91,0.00,CLR,,0.00,0.0,WeatherDisplay:10.37,2013-05-24 07:41:00,
2013-05-24 02:46:00,65.4,62.7,30.04,NE,47,6.5,11.0,91,0.00,CLR,,0.00,0.0,WeatherDisplay:10.37,2013-05-24 07:46:00,
2013-05-24 02:51:00,65.2,62.5,30.04,NE,40,3.8,6.9,91,0.00,CLR,,0.00,0.0,WeatherDisplay:10.37,2013-05-24 07:51:00,
2013-05-24 02:56:00,65.1,62.4,30.04,NE,44,3.1,5.0,91,0.00,CLR,,0.00,0.0,WeatherDisplay:10.37,2013-05-24 07:56:00,
2013-05-24 03:01:00,64.9,62.2,30.04,NE,47,4.1,8.1,91,0.00,CLR,,0.00,0.0,WeatherDisplay:10.37,2013-05-24 08:01:00,
2013-05-24 03:06:00,64.9,62.2,30.04,NE,47,4.0,5.8,91,0.00,CLR,,0.00,0.0,WeatherDisplay:10.37,2013-05-24 08:06:00,
2013-05-24 03:11:00,64.8,62.1,30.04,NE,52,5.8,11.5,91,0.00,CLR,,0.00,0.0,WeatherDisplay:10.37,2013-05-24 08:11:00,
2013-05-24 03:16:00,64.7,62.0,30.04,ENE,67,1.3,6.0,91,0.00,CLR,,0.00,0.0,WeatherDisplay:10.37,2013-05-24 08:16:00,
2013-05-24 03:21:00,64.7,62.0,30.04,NE,52,2.5,3.5,91,0.00,CLR,,0.00,0.0,WeatherDisplay:10.37,2013-05-24 08:21:00,
2013-05-24 03:26:00,64.6,62.2,30.04,NE,54,2.2,4.6,92,0.00,CLR,,0.00,0.0,WeatherDisplay:10.37,2013-05-24 08:26:00,
2013-05-24 03:31:00,64.5,62.1,30.04,NE,51,0.7,3.5,92,0.00,CLR,,0.00,0.0,WeatherDisplay:10.37,2013-05-24 08:31:00,
2013-05-24 03:36:00,64.4,62.0,30.05,ENE,60,3.2,11.5,92,0.00,CLR,,0.00,0.0,WeatherDisplay:10.37,2013-05-24 08:36:00,
2013-05-24 03:41:00,64.4,62.0,30.05,ENE,59,0.2,2.3,92,0.00,CLR,,0.00,0.0,WeatherDisplay:10.37,2013-05-24 08:41:00,
2013-05-24 03:46:00,64.3,61.9,30.05,ENE,59,1.7,4.6,92,0.00,CLR,,0.00,0.0,WeatherDisplay:10.37,2013-05-24 08:46:00,
2013-05-24 03:51:00,64.3,61.9,30.05,ENE,59,1.5,3.5,92,0.00,CLR,,0.00,0.0,WeatherDisplay:10.37,2013-05-24 08:51:00,
2013-05-24 03:56:00,64.2,61.8,30.05,ENE,60,2.1,3.5,92,0.00,CLR,,0.00,0.0,WeatherDisplay:10.37,2013-05-24 08:56:00,
2013-05-24 04:01:00,64.2,61.8,30.05,ENE,59,0.1,4.6,92,0.00,CLR,,0.00,0.0,WeatherDisplay:10.37,2013-05-24 09:01:00,
2013-05-24 04:06:00,64.1,61.7,30.05,ENE,59,1.3,6.9,92,0.00,CLR,,0.00,0.0,WeatherDisplay:10.37,2013-05-24 09:06:00,
2013-05-24 04:11:00,64.0,61.9,30.05,ENE,59,3.0,6.9,93,0.00,CLR,,0.00,0.0,WeatherDisplay:10.37,2013-05-24 09:11:00,
2013-05-24 04:16:00,64.0,61.9,30.05,ENE,59,2.5,3.5,93,0.00,CLR,,0.00,0.0,WeatherDisplay:10.37,2013-05-24 09:16:00,
2013-05-24 04:21:00,64.0,61.9,30.05,ENE,59,3.5,10.0,93,0.00,CLR,,0.00,0.0,WeatherDisplay:10.37,2013-05-24 09:21:00,
2013-05-24 04:26:00,63.9,61.8,30.04,ENE,59,2.4,6.9,93,0.00,CLR,,0.00,0.0,WeatherDisplay:10.37,2013-05-24 09:26:00,
2013-05-24 04:31:00,63.9,61.8,30.05,NE,54,3.8,8.0,93,0.00,CLR,,0.00,0.0,WeatherDisplay:10.37,2013-05-24 09:31:00,
2013-05-24 04:36:00,63.8,61.7,30.04,NE,53,4.9,6.0,93,0.00,CLR,,0.00,0.0,WeatherDisplay:10.37,2013-05-24 09:36:00,
2013-05-24 04:41:00,63.9,61.8,30.05,ENE,58,2.2,5.8,93,0.00,CLR,,0.00,0.0,WeatherDisplay:10.37,2013-05-24 09:41:00,
2013-05-24 04:46:00,63.8,61.7,30.05,ENE,58,6.0,11.5,93,0.00,CLR,,0.00,0.0,WeatherDisplay:10.37,2013-05-24 09:46:00,
2013-05-24 04:51:00,63.8,61.7,30.05,NE,49,1.8,6.9,93,0.00,CLR,,0.00,0.0,WeatherDisplay:10.37,2013-05-24 09:51:00,
2013-05-24 04:56:00,63.9,62.1,30.05,NE,51,2.2,6.9,94,0.00,CLR,,0.00,0.0,WeatherDisplay:10.37,2013-05-24 09:56:00,
2013-05-24 05:01:00,63.9,62.1,30.05,ENE,64,4.2,6.9,94,0.00,CLR,,0.00,0.0,WeatherDisplay:10.37,2013-05-24 10:01:00,
2013-05-24 05:06:00,64.0,61.9,30.05,ENE,63,1.1,6.9,93,0.00,CLR,,0.00,0.0,WeatherDisplay:10.37,2013-05-24 10:06:00,
2013-05-24 05:11:00,64.0,62.2,30.05,NE,50,2.6,4.6,94,0.00,CLR,,0.00,0.0,WeatherDisplay:10.37,2013-05-24 10:11:00,
2013-05-24 05:16:00,64.1,62.3,30.05,NE,50,2.5,5.8,94,0.00,CLR,,0.00,0.0,WeatherDisplay:10.37,2013-05-24 10:16:00,
2013-05-24 05:21:00,64.1,62.3,30.06,NE,50,1.1,7.0,94,0.00,CLR,,0.00,0.0,WeatherDisplay:10.37,2013-05-24 10:21:00,
2013-05-24 05:26:00,64.1,62.3,30.06,NE,50,1.6,3.5,94,0.00,CLR,,0.00,0.0,WeatherDisplay:10.37,2013-05-24 10:26:00,
2013-05-24 05:31:00,64.1,62.3,30.06,NE,51,2.5,4.6,94,0.00,CLR,,0.00,0.0,WeatherDisplay:10.37,2013-05-24 10:31:00,
2013-05-24 05:36:00,64.1,62.3,30.06,NE,51,1.5,3.5,94,0.00,CLR,,0.00,0.0,WeatherDisplay:10.37,2013-05-24 10:36:00,
2013-05-24 05:41:00,64.1,62.3,30.06,NE,52,0.1,3.5,94,0.00,CLR,,0.00,0.0,WeatherDisplay:10.37,2013-05-24 10:41:00,
2013-05-24 05:46:00,64.0,62.2,30.06,NE,52,2.3,3.5,94,0.00,CLR,,0.00,0.0,WeatherDisplay:10.37,2013-05-24 10:46:00,
2013-05-24 05:51:00,64.0,62.2,30.07,NE,52,0.4,4.6,94,0.00,CLR,,0.00,0.0,WeatherDisplay:10.37,2013-05-24 10:51:00,
2013-05-24 05:56:00,64.0,62.5,30.07,NE,52,1.3,4.6,95,0.00,CLR,,0.00,0.0,WeatherDisplay:10.37,2013-05-24 10:56:00,
2013-05-24 06:01:00,64.1,62.6,30.07,NE,52,2.2,3.5,95,0.00,CLR,,0.00,0.0,WeatherDisplay:10.37,2013-05-24 11:01:00,
2013-05-24 06:06:00,64.1,62.6,30.07,NE,52,3.7,4.6,95,0.00,CLR,,0.00,0.0,WeatherDisplay:10.37,2013-05-24 11:06:00,
2013-05-24 06:11:00,64.3,62.8,30.07,NE,52,2.1,4.6,95,0.00,CLR,,0.00,0.0,WeatherDisplay:10.37,2013-05-24 11:11:00,
2013-05-24 06:16:00,64.4,62.9,30.07,NE,52,0.9,4.6,95,0.00,CLR,,0.00,0.0,WeatherDisplay:10.37,2013-05-24 11:16:00,
2013-05-24 06:21:00,64.5,62.7,30.07,NE,52,2.9,5.0,94,0.00,CLR,,0.00,0.0,WeatherDisplay:10.37,2013-05-24 11:21:00,
2013-05-24 06:26:00,64.6,62.8,30.08,NE,52,0.3,3.5,94,0.00,CLR,,0.00,0.0,WeatherDisplay:10.37,2013-05-24 11:26:00,
2013-05-24 06:31:00,64.8,63.0,30.07,NE,54,3.7,8.1,94,0.00,BKN,,0.00,5.5,WeatherDisplay:10.37,2013-05-24 11:31:00,
2013-05-24 06:36:00,64.9,63.1,30.07,NE,54,2.3,5.0,94,0.00,BKN,,0.00,7.7,WeatherDisplay:10.37,2013-05-24 11:36:00,
2013-05-24 06:41:00,65.0,63.2,30.07,NE,54,3.7,6.0,94,0.00,BKN,,0.00,9.9,WeatherDisplay:10.37,2013-05-24 11:41:00,
2013-05-24 06:46:00,65.2,63.4,30.07,NE,54,3.6,3.6,94,0.00,OVC,,0.00,13.2,WeatherDisplay:10.37,2013-05-24 11:46:00,
2013-05-24 06:51:00,65.3,63.5,30.07,NE,55,1.2,5.8,94,0.00,OVC,,0.00,20.9,WeatherDisplay:10.37,2013-05-24 11:51:00,
2013-05-24 06:56:00,65.5,63.7,30.08,NE,56,2.8,6.9,94,0.00,OVC,,0.00,25.3,WeatherDisplay:10.37,2013-05-24 11:56:00,
2013-05-24 07:01:00,65.7,63.9,30.08,NE,56,0.5,5.8,94,0.00,OVC,,0.00,28.6,WeatherDisplay:10.37,2013-05-24 12:01:00,
2013-05-24 07:06:00,65.8,64.0,30.08,NE,56,1.7,3.5,94,0.00,OVC,,0.00,36.3,WeatherDisplay:10.37,2013-05-24 12:06:00,
2013-05-24 07:11:00,66.0,63.9,30.08,NE,55,0.1,5.8,93,0.00,OVC,,0.00,25.3,WeatherDisplay:10.37,2013-05-24 12:11:00,
2013-05-24 07:16:00,66.1,64.0,30.09,ENE,58,0.8,8.1,93,0.00,OVC,,0.00,40.7,WeatherDisplay:10.37,2013-05-24 12:16:00,
2013-05-24 07:21:00,66.3,64.2,30.09,ENE,58,0.1,3.5,93,0.00,OVC,,0.00,53.9,WeatherDisplay:10.37,2013-05-24 12:21:00,
2013-05-24 07:26:00,66.4,64.3,30.09,ENE,58,0.0,0.0,93,0.00,OVC,,0.00,59.4,WeatherDisplay:10.37,2013-05-24 12:26:00,
2013-05-24 07:31:00,66.5,64.4,30.09,ENE,58,0.9,2.0,93,0.00,OVC,,0.00,69.3,WeatherDisplay:10.37,2013-05-24 12:31:00,
2013-05-24 07:36:00,66.7,64.6,30.09,ENE,58,2.2,3.0,93,0.00,OVC,,0.00,79.2,WeatherDisplay:10.37,2013-05-24 12:36:00,
2013-05-24 07:41:00,66.9,64.8,30.10,ENE,58,1.7,1.7,93,0.00,OVC,,0.00,94.6,WeatherDisplay:10.37,2013-05-24 12:41:00,
2013-05-24 07:46:00,67.3,65.2,30.10,ENE,58,0.0,3.5,93,0.00,SCT,,0.00,115.5,WeatherDisplay:10.37,2013-05-24 12:46:00,
2013-05-24 07:51:00,67.6,65.5,30.10,ENE,60,0.7,3.5,93,0.00,SCT,,0.00,143.0,WeatherDisplay:10.37,2013-05-24 12:51:00,
2013-05-24 07:56:00,68.0,65.6,30.10,ENE,60,0.6,4.6,92,0.00,SCT,,0.00,135.3,WeatherDisplay:10.37,2013-05-24 12:56:00,
2013-05-24 08:01:00,68.3,65.9,30.11,ENE,60,0.2,2.3,92,0.00,BKN,,0.00,147.4,WeatherDisplay:10.37,2013-05-24 13:01:00,
2013-05-24 08:06:00,68.5,65.8,30.11,ENE,60,0.8,4.6,91,0.00,BKN,,0.00,152.9,WeatherDisplay:10.37,2013-05-24 13:06:00,
2013-05-24 08:11:00,68.9,66.2,30.11,ENE,60,1.0,3.5,91,0.00,BKN,,0.00,156.2,WeatherDisplay:10.37,2013-05-24 13:11:00,
2013-05-24 08:16:00,69.0,65.9,30.11,ENE,60,0.1,1.1,90,0.00,BKN,,0.00,166.1,WeatherDisplay:10.37,2013-05-24 13:16:00,
2013-05-24 08:21:00,69.3,66.2,30.11,ENE,62,4.0,6.9,90,0.00,SCT,,0.00,163.9,WeatherDisplay:10.37,2013-05-24 13:21:00,
2013-05-24 08:26:00,69.3,66.2,30.11,ENE,65,4.1,6.9,90,0.00,BKN,,0.00,127.6,WeatherDisplay:10.37,2013-05-24 13:26:00,
2013-05-24 08:31:00,69.5,66.4,30.11,ENE,66,2.2,3.0,90,0.00,BKN,,0.00,124.3,WeatherDisplay:10.37,2013-05-24 13:31:00,
2013-05-24 08:36:00,69.6,66.5,30.11,ENE,66,0.5,3.0,90,0.00,BKN,,0.00,143.0,WeatherDisplay:10.37,2013-05-24 13:36:00,
2013-05-24 08:41:00,70.0,66.9,30.11,ENE,68,1.4,5.8,90,0.00,BKN,,0.00,189.2,WeatherDisplay:10.37,2013-05-24 13:41:00,
2013-05-24 08:46:00,70.4,67.3,30.11,ENE,72,1.6,5.8,90,0.00,OVC,,0.00,181.5,WeatherDisplay:10.37,2013-05-24 13:46:00,
2013-05-24 08:51:00,70.8,67.4,30.11,ENE,72,0.6,2.3,89,0.00,OVC,,0.00,201.3,WeatherDisplay:10.37,2013-05-24 13:51:00,
2013-05-24 08:56:00,71.5,67.8,30.11,East,84,1.8,5.8,88,0.00,OVC,,0.00,253.0,WeatherDisplay:10.37,2013-05-24 13:56:00,
2013-05-24 09:01:00,72.1,68.3,30.11,ESE,104,1.0,1.1,88,0.00,SCT,,0.00,313.5,WeatherDisplay:10.37,2013-05-24 14:01:00,
2013-05-24 09:06:00,72.4,68.0,30.11,ESE,104,1.0,1.1,86,0.00,SCT,,0.00,379.5,WeatherDisplay:10.37,2013-05-24 14:06:00,
2013-05-24 09:11:00,73.0,68.6,30.11,East,90,1.3,5.8,86,0.00,SCT,,0.00,388.3,WeatherDisplay:10.37,2013-05-24 14:11:00,
2013-05-24 09:16:00,73.5,68.4,30.12,ESE,120,5.4,10.4,84,0.00,SCT,,0.00,295.9,WeatherDisplay:10.37,2013-05-24 14:16:00,
2013-05-24 09:21:00,72.9,67.8,30.12,ESE,122,6.1,11.5,84,0.00,SCT,,0.00,226.6,WeatherDisplay:10.37,2013-05-24 14:21:00,
2013-05-24 09:26:00,72.7,67.9,30.12,SSE,157,8.0,13.8,85,0.00,SCT,,0.00,234.3,WeatherDisplay:10.37,2013-05-24 14:26:00,
2013-05-24 09:31:00,72.6,67.8,30.12,ESE,116,2.8,7.0,85,0.00,SCT,,0.00,324.5,WeatherDisplay:10.37,2013-05-24 14:31:00,
2013-05-24 09:36:00,73.1,68.3,30.12,SE,140,2.3,8.1,85,0.00,SCT,,0.00,293.7,WeatherDisplay:10.37,2013-05-24 14:36:00,
2013-05-24 09:41:00,73.6,68.8,30.12,ESE,109,2.3,8.1,85,0.00,SCT,,0.00,178.2,WeatherDisplay:10.37,2013-05-24 14:41:00,
2013-05-24 09:46:00,73.1,68.0,30.12,SE,128,6.0,15.0,84,0.00,BKN,,0.00,148.5,WeatherDisplay:10.37,2013-05-24 14:46:00,
2013-05-24 09:51:00,72.8,68.0,30.12,ESE,123,4.1,6.9,85,0.00,BKN,,0.00,242.0,WeatherDisplay:10.37,2013-05-24 14:51:00,
2013-05-24 09:56:00,72.7,67.9,30.12,East,95,6.0,11.5,85,0.00,BKN,,0.00,216.7,WeatherDisplay:10.37,2013-05-24 14:56:00,
2013-05-24 10:01:00,73.0,68.6,30.12,SE,127,1.8,5.8,86,0.00,OVC,,0.00,396.0,WeatherDisplay:10.37,2013-05-24 15:01:00,
2013-05-24 10:06:00,73.7,68.6,30.13,SE,133,7.3,11.0,84,0.00,OVC,,0.00,375.1,WeatherDisplay:10.37,2013-05-24 15:06:00,
2013-05-24 10:11:00,74.1,69.0,30.12,SE,128,5.8,6.9,84,0.00,OVC,,0.00,390.5,WeatherDisplay:10.37,2013-05-24 15:11:00,
2013-05-24 10:16:00,74.4,69.2,30.12,ESE,120,8.0,12.0,84,0.00,OVC,,0.00,553.3,WeatherDisplay:10.37,2013-05-24 15:16:00,
2013-05-24 10:21:00,74.5,69.3,30.12,ESE,108,3.2,4.6,84,0.00,OVC,,0.00,367.4,WeatherDisplay:10.37,2013-05-24 15:21:00,
2013-05-24 10:26:00,74.8,69.3,30.12,ESE,118,5.7,11.5,83,0.00,OVC,,0.00,311.3,WeatherDisplay:10.37,2013-05-24 15:26:00,
2013-05-24 10:31:00,74.4,68.9,30.12,ESE,122,6.3,11.5,83,0.00,OVC,,0.00,338.8,WeatherDisplay:10.37,2013-05-24 15:31:00,
2013-05-24 10:36:00,74.3,69.1,30.12,ESE,117,6.7,15.0,84,0.00,OVC,,0.00,237.6,WeatherDisplay:10.37,2013-05-24 15:36:00,
2013-05-24 10:41:00,74.2,69.1,30.12,SE,142,1.8,8.1,84,0.00,OVC,,0.00,270.6,WeatherDisplay:10.37,2013-05-24 15:41:00,
2013-05-24 10:46:00,74.8,69.6,30.12,SE,139,5.0,10.4,84,0.00,OVC,,0.00,462.0,WeatherDisplay:10.37,2013-05-24 15:46:00,
2013-05-24 10:51:00,75.3,70.1,30.11,SE,133,2.9,8.1,84,0.00,OVC,,0.00,415.8,WeatherDisplay:10.37,2013-05-24 15:51:00,
2013-05-24 10:56:00,76.0,70.8,30.12,ESE,121,2.8,7.0,84,0.00,OVC,,0.00,456.5,WeatherDisplay:10.37,2013-05-24 15:56:00,
2013-05-24 11:01:00,76.5,70.2,30.12,SSE,156,6.2,11.5,81,0.00,OVC,,0.00,377.3,WeatherDisplay:10.37,2013-05-24 16:01:00,
2013-05-24 11:06:00,75.9,70.0,30.12,SE,137,1.7,9.2,82,0.00,OVC,,0.00,239.8,WeatherDisplay:10.37,2013-05-24 16:06:00,
2013-05-24 11:11:00,75.4,69.5,30.12,SE,132,5.4,11.5,82,0.00,OVC,,0.00,232.1,WeatherDisplay:10.37,2013-05-24 16:11:00,
2013-05-24 11:16:00,75.2,69.7,30.12,SE,131,4.0,11.5,83,0.00,OVC,,0.00,251.9,WeatherDisplay:10.37,2013-05-24 16:16:00,
2013-05-24 11:21:00,74.9,69.7,30.11,SE,146,4.9,12.7,84,0.00,OVC,,0.00,280.5,WeatherDisplay:10.37,2013-05-24 16:21:00,
2013-05-24 11:26:00,75.0,69.8,30.11,SE,141,4.3,9.2,84,0.00,OVC,,0.00,262.9,WeatherDisplay:10.37,2013-05-24 16:26:00,
2013-05-24 11:31:00,75.2,70.0,30.12,SE,141,5.8,8.1,84,0.00,OVC,,0.00,295.9,WeatherDisplay:10.37,2013-05-24 16:31:00,
2013-05-24 11:36:00,75.3,70.1,30.12,SE,138,3.4,8.1,84,0.00,OVC,,0.00,392.7,WeatherDisplay:10.37,2013-05-24 16:36:00,
2013-05-24 11:41:00,76.0,70.1,30.12,ESE,110,3.5,9.2,82,0.00,OVC,,0.00,520.3,WeatherDisplay:10.37,2013-05-24 16:41:00,
2013-05-24 11:46:00,76.7,70.8,30.12,SE,136,5.2,13.8,82,0.00,OVC,,0.00,591.8,WeatherDisplay:10.37,2013-05-24 16:46:00,
2013-05-24 11:51:00,77.0,71.1,30.12,ESE,117,7.5,12.7,82,0.00,OVC,,0.00,564.3,WeatherDisplay:10.37,2013-05-24 16:51:00,
2013-05-24 11:56:00,77.4,71.1,30.12,ESE,117,5.7,9.2,81,0.00,OVC,,0.00,377.3,WeatherDisplay:10.37,2013-05-24 16:56:00,
2013-05-24 12:01:00,77.0,71.1,30.12,SSE,148,4.3,5.8,82,0.00,OVC,,0.00,459.8,WeatherDisplay:10.37,2013-05-24 17:01:00,
2013-05-24 12:06:00,77.0,71.1,30.12,SE,141,4.4,8.1,82,0.00,OVC,,0.00,485.1,WeatherDisplay:10.37,2013-05-24 17:06:00,
2013-05-24 12:11:00,77.2,71.3,30.12,SSE,154,2.6,8.1,82,0.00,OVC,,0.00,523.6,WeatherDisplay:10.37,2013-05-24 17:11:00,
2013-05-24 12:16:00,77.7,71.4,30.12,SSE,152,3.7,11.5,81,0.00,OVC,,0.00,518.1,WeatherDisplay:10.37,2013-05-24 17:16:00,
2013-05-24 12:21:00,78.0,71.7,30.12,SE,130,3.4,9.2,81,0.00,OVC,,0.00,451.0,WeatherDisplay:10.37,2013-05-24 17:21:00,
2013-05-24 12:26:00,79.7,72.6,30.12,SE,125,2.2,6.9,79,0.00,OVC,,0.00,885.5,WeatherDisplay:10.37,2013-05-24 17:26:00,
2013-05-24 12:31:00,79.9,73.2,30.11,SSE,159,7.2,15.0,80,0.00,OVC,,0.00,874.5,WeatherDisplay:10.37,2013-05-24 17:31:00,
2013-05-24 12:36:00,79.1,72.0,30.11,SSE,149,6.7,14.0,79,0.00,OVC,,0.00,541.2,WeatherDisplay:10.37,2013-05-24 17:36:00,
2013-05-24 12:41:00,79.3,72.6,30.11,SSE,162,7.3,13.8,80,0.00,OVC,,0.00,844.8,WeatherDisplay:10.37,2013-05-24 17:41:00,
2013-05-24 12:46:00,79.6,72.1,30.11,ESE,122,3.6,12.7,78,0.00,BKN,,0.00,408.1,WeatherDisplay:10.37,2013-05-24 17:46:00,
2013-05-24 12:51:00,79.2,72.1,30.11,SSE,151,5.0,11.5,79,0.00,BKN,,0.00,492.8,WeatherDisplay:10.37,2013-05-24 17:51:00,
2013-05-24 12:56:00,79.5,72.8,30.11,SSE,154,6.4,9.2,80,0.00,BKN,,0.00,388.3,WeatherDisplay:10.37,2013-05-24 17:56:00,
2013-05-24 13:01:00,79.2,72.1,30.11,SE,142,7.0,10.0,79,0.00,BKN,,0.00,413.6,WeatherDisplay:10.37,2013-05-24 18:01:00,
2013-05-24 13:06:00,79.5,72.0,30.11,SE,135,8.6,11.5,78,0.00,BKN,,0.00,355.3,WeatherDisplay:10.37,2013-05-24 18:06:00,
2013-05-24 13:11:00,79.5,72.4,30.11,SSE,154,3.6,10.4,79,0.00,BKN,,0.00,558.8,WeatherDisplay:10.37,2013-05-24 18:11:00,
2013-05-24 13:16:00,79.3,72.2,30.11,South,171,7.6,11.5,79,0.00,BKN,,0.00,313.5,WeatherDisplay:10.37,2013-05-24 18:16:00,
2013-05-24 13:21:00,78.6,72.6,30.11,SSE,154,7.1,12.7,82,0.00,BKN,,0.00,377.3,WeatherDisplay:10.37,2013-05-24 18:21:00,
2013-05-24 13:26:00,78.8,72.5,30.11,SSE,147,4.3,9.0,81,0.00,BKN,,0.00,331.1,WeatherDisplay:10.37,2013-05-24 18:26:00,
2013-05-24 13:31:00,78.8,72.1,30.10,SE,137,2.6,11.5,80,0.00,OVC,,0.00,459.8,WeatherDisplay:10.37,2013-05-24 18:31:00,
2013-05-24 13:36:00,79.4,72.7,30.10,SE,145,8.4,10.4,80,0.00,OVC,,0.00,568.7,WeatherDisplay:10.37,2013-05-24 18:36:00,
2013-05-24 13:41:00,80.4,73.3,30.10,SSE,164,9.8,13.0,79,0.00,OVC,,0.00,713.9,WeatherDisplay:10.37,2013-05-24 18:41:00,
2013-05-24 13:46:00,80.6,72.7,30.10,SE,135,7.2,11.5,77,0.00,OVC,,0.00,742.5,WeatherDisplay:10.37,2013-05-24 18:46:00,
2013-05-24 13:51:00,80.0,71.8,30.10,SSE,153,6.5,10.4,76,0.00,OVC,,0.00,469.7,WeatherDisplay:10.37,2013-05-24 18:51:00,
2013-05-24 13:56:00,79.5,71.7,30.10,SSE,149,8.7,11.5,77,0.00,OVC,,0.00,507.1,WeatherDisplay:10.37,2013-05-24 18:56:00,
2013-05-24 14:01:00,79.4,71.9,30.10,SSE,159,5.6,5.8,78,0.00,OVC,,0.00,443.3,WeatherDisplay:10.37,2013-05-24 19:01:00,
2013-05-24 14:06:00,79.8,72.3,30.10,SE,137,5.0,6.9,78,0.00,OVC,,0.00,429.0,WeatherDisplay:10.37,2013-05-24 19:06:00,
2013-05-24 14:11:00,80.8,73.3,30.10,ESE,115,1.1,4.0,78,0.00,OVC,,0.00,946.0,WeatherDisplay:10.37,2013-05-24 19:11:00,
2013-05-24 14:16:00,82.0,73.3,30.09,SE,146,5.2,12.7,75,0.00,OVC,,0.00,1013.1,WeatherDisplay:10.37,2013-05-24 19:16:00,
2013-05-24 14:21:00,82.3,72.8,30.09,ESE,110,4.3,12.7,73,0.00,OVC,,0.00,918.5,WeatherDisplay:10.37,2013-05-24 19:21:00,
2013-05-24 14:26:00,81.3,72.6,30.09,ESE,103,5.8,15.0,75,0.00,OVC,,0.00,405.9,WeatherDisplay:10.37,2013-05-24 19:26:00,
2013-05-24 14:31:00,81.2,72.1,30.09,SE,129,3.4,6.0,74,0.00,OVC,,0.00,561.0,WeatherDisplay:10.37,2013-05-24 19:31:00,
2013-05-24 14:36:00,81.9,72.8,30.09,East,97,3.0,8.0,74,0.00,OVC,,0.00,997.7,WeatherDisplay:10.37,2013-05-24 19:36:00,
2013-05-24 14:41:00,82.3,72.8,30.09,SE,134,4.0,8.1,73,0.00,OVC,,0.00,413.6,WeatherDisplay:10.37,2013-05-24 19:41:00,
2013-05-24 14:46:00,80.9,72.2,30.09,SE,130,3.8,9.2,75,0.00,BKN,,0.00,321.2,WeatherDisplay:10.37,2013-05-24 19:46:00,
2013-05-24 14:51:00,80.4,72.1,30.09,SE,131,6.5,11.5,76,0.00,BKN,,0.00,298.1,WeatherDisplay:10.37,2013-05-24 19:51:00,
2013-05-24 14:56:00,80.6,71.9,30.09,SE,142,5.0,9.2,75,0.00,BKN,,0.00,398.2,WeatherDisplay:10.37,2013-05-24 19:56:00,
2013-05-24 15:01:00,81.1,72.8,30.09,SE,124,8.0,13.8,76,0.00,OVC,,0.00,495.0,WeatherDisplay:10.37,2013-05-24 20:01:00,
2013-05-24 15:06:00,81.3,72.6,30.08,SE,134,7.2,12.0,75,0.00,OVC,,0.00,614.9,WeatherDisplay:10.37,2013-05-24 20:06:00,
2013-05-24 15:11:00,81.5,72.8,30.08,SSE,150,5.1,11.5,75,0.00,OVC,,0.00,259.6,WeatherDisplay:10.37,2013-05-24 20:11:00,
2013-05-24 15:16:00,80.6,72.3,30.08,ESE,106,3.8,9.2,76,0.00,OVC,,0.00,367.4,WeatherDisplay:10.37,2013-05-24 20:16:00,
2013-05-24 15:21:00,80.5,72.2,30.08,SE,140,5.3,11.5,76,0.00,OVC,,0.00,367.4,WeatherDisplay:10.37,2013-05-24 20:21:00,
2013-05-24 15:26:00,81.1,73.2,30.08,ESE,120,3.0,6.9,77,0.00,OVC,,0.00,525.8,WeatherDisplay:10.37,2013-05-24 20:26:00,
2013-05-24 15:31:00,81.7,72.6,30.07,SSE,152,6.5,12.7,74,0.00,OVC,,0.00,701.8,WeatherDisplay:10.37,2013-05-24 20:31:00,
2013-05-24 15:36:00,81.9,73.2,30.07,ESE,115,3.6,7.0,75,0.00,OVC,,0.00,729.3,WeatherDisplay:10.37,2013-05-24 20:36:00,
2013-05-24 15:41:00,81.8,73.1,30.07,ESE,103,5.9,9.2,75,0.00,OVC,,0.00,711.7,WeatherDisplay:10.37,2013-05-24 20:41:00,
2013-05-24 15:46:00,81.1,72.4,30.07,ESE,118,3.9,11.5,75,0.00,OVC,,0.00,411.4,WeatherDisplay:10.37,2013-05-24 20:46:00,
2013-05-24 15:51:00,81.1,72.8,30.06,SE,128,3.4,10.4,76,0.00,OVC,,0.00,336.6,WeatherDisplay:10.37,2013-05-24 20:51:00,
2013-05-24 15:56:00,81.3,73.0,30.06,ESE,123,3.7,4.6,76,0.00,OVC,,0.00,570.9,WeatherDisplay:10.37,2013-05-24 20:56:00,
2013-05-24 16:01:00,81.3,72.6,30.05,ESE,104,2.9,4.6,75,0.00,OVC,,0.00,467.5,WeatherDisplay:10.37,2013-05-24 21:01:00,
2013-05-24 16:06:00,81.6,72.9,30.05,ESE,118,4.9,8.1,75,0.00,OVC,,0.00,408.1,WeatherDisplay:10.37,2013-05-24 21:06:00,
2013-05-24 16:11:00,81.2,72.5,30.05,ESE,122,4.4,6.9,75,0.00,OVC,,0.00,321.2,WeatherDisplay:10.37,2013-05-24 21:11:00,
2013-05-24 16:16:00,81.2,73.3,30.05,ESE,116,4.1,8.1,77,0.00,OVC,,0.00,418.0,WeatherDisplay:10.37,2013-05-24 21:16:00,
2013-05-24 16:21:00,80.9,72.6,30.05,East,100,6.1,12.0,76,0.00,OVC,,0.00,224.4,WeatherDisplay:10.37,2013-05-24 21:21:00,
2013-05-24 16:26:00,80.6,72.7,30.05,SE,129,3.5,5.0,77,0.00,OVC,,0.00,229.9,WeatherDisplay:10.37,2013-05-24 21:26:00,
2013-05-24 16:31:00,80.2,71.9,30.05,ESE,118,6.0,13.8,76,0.00,OVC,,0.00,239.8,WeatherDisplay:10.37,2013-05-24 21:31:00,
2013-05-24 16:36:00,80.1,72.2,30.05,ESE,120,6.1,12.7,77,0.00,OVC,,0.00,286.0,WeatherDisplay:10.37,2013-05-24 21:36:00,
2013-05-24 16:41:00,80.4,72.5,30.05,SE,124,4.8,13.8,77,0.00,OVC,,0.00,361.9,WeatherDisplay:10.37,2013-05-24 21:41:00,
2013-05-24 16:46:00,80.7,72.8,30.05,East,81,1.7,4.6,77,0.00,OVC,,0.00,315.7,WeatherDisplay:10.37,2013-05-24 21:46:00,
2013-05-24 16:51:00,80.5,72.2,30.05,ESE,108,3.1,10.4,76,0.00,OVC,,0.00,282.7,WeatherDisplay:10.37,2013-05-24 21:51:00,
2013-05-24 16:56:00,80.4,72.5,30.05,ESE,114,4.1,7.0,77,0.00,OVC,,0.00,306.9,WeatherDisplay:10.37,2013-05-24 21:56:00,
2013-05-24 17:01:00,80.3,72.0,30.05,SE,141,5.3,9.2,76,0.00,BKN,,0.00,291.5,WeatherDisplay:10.37,2013-05-24 22:01:00,
2013-05-24 17:06:00,80.1,71.8,30.05,ESE,108,4.0,8.1,76,0.00,BKN,,0.00,265.1,WeatherDisplay:10.37,2013-05-24 22:06:00,
2013-05-24 17:11:00,79.9,72.0,30.05,ESE,118,6.2,9.2,77,0.00,BKN,,0.00,247.5,WeatherDisplay:10.37,2013-05-24 22:11:00,
2013-05-24 17:16:00,79.8,71.6,30.05,ESE,120,7.3,16.1,76,0.00,BKN,,0.00,247.5,WeatherDisplay:10.37,2013-05-24 22:16:00,
2013-05-24 17:21:00,79.7,72.2,30.05,ESE,109,5.1,11.5,78,0.00,BKN,,0.00,235.4,WeatherDisplay:10.37,2013-05-24 22:21:00,
2013-05-24 17:26:00,79.7,71.8,30.05,SE,133,2.8,5.8,77,0.00,BKN,,0.00,234.3,WeatherDisplay:10.37,2013-05-24 22:26:00,
2013-05-24 17:31:00,79.8,71.9,30.05,SE,127,5.5,9.2,77,0.00,SCT,,0.00,227.7,WeatherDisplay:10.37,2013-05-24 22:31:00,
2013-05-24 17:36:00,79.6,72.1,30.05,ESE,122,1.3,5.8,78,0.00,SCT,,0.00,220.0,WeatherDisplay:10.37,2013-05-24 22:36:00,
2013-05-24 17:41:00,79.5,72.0,30.05,SE,135,3.7,8.1,78,0.00,SCT,,0.00,211.2,WeatherDisplay:10.37,2013-05-24 22:41:00,
2013-05-24 17:46:00,79.4,71.9,30.05,ESE,104,3.9,13.8,78,0.00,SCT,,0.00,147.4,WeatherDisplay:10.37,2013-05-24 22:46:00,
2013-05-24 17:51:00,79.2,72.1,30.05,ESE,102,0.1,6.9,79,0.00,SCT,,0.00,140.8,WeatherDisplay:10.37,2013-05-24 22:51:00,
2013-05-24 17:56:00,79.2,72.1,30.05,ESE,104,4.9,8.1,79,0.00,SCT,,0.00,156.2,WeatherDisplay:10.37,2013-05-24 22:56:00,
2013-05-24 18:01:00,79.2,72.1,30.05,ESE,120,2.0,5.8,79,0.00,SCT,,0.00,115.5,WeatherDisplay:10.37,2013-05-24 23:01:00,
2013-05-24 18:06:00,78.9,71.8,30.04,ESE,112,2.5,9.2,79,0.00,SCT,,0.00,107.8,WeatherDisplay:10.37,2013-05-24 23:06:00,
2013-05-24 18:11:00,78.9,72.2,30.04,ESE,107,1.9,7.0,80,0.00,SCT,,0.00,156.2,WeatherDisplay:10.37,2013-05-24 23:11:00,
2013-05-24 18:16:00,78.9,71.8,30.04,ESE,106,2.8,8.1,79,0.00,SCT,,0.00,160.6,WeatherDisplay:10.37,2013-05-24 23:16:00,
2013-05-24 18:21:00,78.8,72.1,30.04,ESE,113,4.1,7.0,80,0.00,SCT,,0.00,155.1,WeatherDisplay:10.37,2013-05-24 23:21:00,
2013-05-24 18:26:00,78.8,71.7,30.04,ESE,104,2.4,4.6,79,0.00,SCT,,0.00,150.7,WeatherDisplay:10.37,2013-05-24 23:26:00,
2013-05-24 18:31:00,78.7,72.0,30.04,ESE,122,2.7,11.5,80,0.00,BKN,,0.00,147.4,WeatherDisplay:10.37,2013-05-24 23:31:00,
2013-05-24 18:36:00,78.5,71.8,30.03,East,99,2.1,7.0,80,0.00,BKN,,0.00,137.5,WeatherDisplay:10.37,2013-05-24 23:36:00,
2013-05-24 18:41:00,78.4,71.7,30.03,East,93,2.0,6.9,80,0.00,BKN,,0.00,122.1,WeatherDisplay:10.37,2013-05-24 23:41:00,
2013-05-24 18:46:00,78.3,72.0,30.03,East,93,1.2,7.0,81,0.00,SCT,,0.00,117.7,WeatherDisplay:10.37,2013-05-24 23:46:00,
2013-05-24 18:51:00,78.2,71.9,30.04,SE,133,3.2,9.0,81,0.00,SCT,,0.00,102.3,WeatherDisplay:10.37,2013-05-24 23:51:00,
2013-05-24 18:56:00,78.1,71.4,30.04,SE,129,3.2,9.2,80,0.00,SCT,,0.00,89.1,WeatherDisplay:10.37,2013-05-24 23:56:00,
2013-05-24 19:01:00,78.0,71.7,30.04,ESE,122,5.5,9.2,81,0.00,SCT,,0.00,89.1,WeatherDisplay:10.37,2013-05-25 00:01:00,
2013-05-24 19:06:00,77.8,71.5,30.05,ESE,110,0.4,4.0,81,0.00,SCT,,0.00,77.0,WeatherDisplay:10.37,2013-05-25 00:06:00,
2013-05-24 19:11:00,77.6,71.7,30.05,ESE,123,2.5,5.8,82,0.00,SCT,,0.00,68.2,WeatherDisplay:10.37,2013-05-25 00:11:00,
2013-05-24 19:16:00,77.6,71.7,30.05,ESE,111,2.6,6.9,82,0.00,SCT,,0.00,59.4,WeatherDisplay:10.37,2013-05-25 00:16:00,
2013-05-24 19:21:00,77.5,71.6,30.05,ESE,116,4.1,9.0,82,0.00,SCT,,0.00,53.9,WeatherDisplay:10.37,2013-05-25 00:21:00,
2013-05-24 19:26:00,77.3,71.4,30.05,SSE,149,3.5,10.0,82,0.00,SCT,,0.00,48.4,WeatherDisplay:10.37,2013-05-25 00:26:00,
2013-05-24 19:31:00,77.1,71.2,30.05,SE,132,1.0,4.6,82,0.00,SCT,,0.00,42.9,WeatherDisplay:10.37,2013-05-25 00:31:00,
2013-05-24 19:36:00,77.0,71.1,30.05,SE,130,1.8,3.5,82,0.00,SCT,,0.00,36.3,WeatherDisplay:10.37,2013-05-25 00:36:00,
2013-05-24 19:41:00,76.9,71.3,30.05,ESE,114,2.8,7.0,83,0.00,SCT,,0.00,35.2,WeatherDisplay:10.37,2013-05-25 00:41:00,
2013-05-24 19:46:00,76.9,71.3,30.06,ESE,114,2.3,6.9,83,0.00,SCT,,0.00,23.1,WeatherDisplay:10.37,2013-05-25 00:46:00,
2013-05-24 19:51:00,76.8,71.2,30.06,ESE,116,1.7,4.0,83,0.00,SCT,,0.00,17.6,WeatherDisplay:10.37,2013-05-25 00:51:00,
2013-05-24 19:56:00,76.7,71.1,30.06,SE,132,2.4,13.0,83,0.00,SCT,,0.00,20.9,WeatherDisplay:10.37,2013-05-25 00:56:00,
2013-05-24 20:01:00,76.6,71.0,30.06,ESE,121,0.7,6.9,83,0.00,BKN,,0.00,7.7,WeatherDisplay:10.37,2013-05-25 01:01:00,
2013-05-24 20:06:00,76.5,71.3,30.07,SE,129,2.9,5.8,84,0.00,BKN,,0.00,5.5,WeatherDisplay:10.37,2013-05-25 01:06:00,
2013-05-24 20:11:00,76.4,71.2,30.06,SE,126,0.1,2.3,84,0.00,BKN,,0.00,0.0,WeatherDisplay:10.37,2013-05-25 01:11:00,
2013-05-24 20:16:00,76.4,71.2,30.07,ESE,108,0.6,4.6,84,0.00,BKN,,0.00,0.0,WeatherDisplay:10.37,2013-05-25 01:16:00,
2013-05-24 20:21:00,76.2,71.0,30.08,South,185,4.4,10.4,84,0.00,BKN,,0.00,0.0,WeatherDisplay:10.37,2013-05-25 01:21:00,
2013-05-24 20:26:00,75.9,71.4,30.08,South,173,0.6,2.3,86,0.00,BKN,,0.00,0.0,WeatherDisplay:10.37,2013-05-25 01:26:00,
2013-05-24 20:31:00,75.6,71.1,30.08,South,187,6.0,9.0,86,0.00,OVC,,0.00,0.0,WeatherDisplay:10.37,2013-05-25 01:31:00,
2013-05-24 20:36:00,74.9,70.1,30.08,SW,220,5.4,10.4,85,0.00,OVC,,0.00,0.0,WeatherDisplay:10.37,2013-05-25 01:36:00,
2013-05-24 20:41:00,73.7,68.2,30.09,SW,217,6.9,11.5,83,0.00,OVC,,0.00,0.0,WeatherDisplay:10.37,2013-05-25 01:41:00,
2013-05-24 20:46:00,72.6,65.7,30.08,SSW,213,0.4,4.6,79,0.00,-RA,,0.00,0.0,WeatherDisplay:10.37,2013-05-25 01:46:00,
2013-05-24 20:51:00,72.0,66.2,30.09,SSW,213,0.0,0.0,82,0.00,-RA,,0.00,0.0,WeatherDisplay:10.37,2013-05-25 01:51:00,
2013-05-24 20:56:00,71.1,67.0,30.09,SSW,207,1.1,2.3,87,0.02,-RA,,0.02,0.0,WeatherDisplay:10.37,2013-05-25 01:56:00,
2013-05-24 21:01:00,69.9,67.2,30.08,SSW,207,0.0,0.0,91,0.02,-RA,,0.02,0.0,WeatherDisplay:10.37,2013-05-25 02:01:00,
2013-05-24 21:06:00,69.5,67.4,30.08,SSW,205,0.0,0.0,93,0.02,-RA,,0.02,0.0,WeatherDisplay:10.37,2013-05-25 02:06:00,
2013-05-24 21:11:00,69.6,67.8,30.08,SSW,205,0.0,1.1,94,0.02,-RA,,0.02,0.0,WeatherDisplay:10.37,2013-05-25 02:11:00,
2013-05-24 21:16:00,69.9,68.4,30.08,SSW,205,0.5,0.0,95,0.02,-RA,,0.02,0.0,WeatherDisplay:10.37,2013-05-25 02:16:00,
2013-05-24 21:21:00,70.4,68.9,30.08,SSW,205,0.3,3.5,95,0.02,-RA,,0.02,0.0,WeatherDisplay:10.37,2013-05-25 02:21:00,
2013-05-24 21:26:00,70.7,69.5,30.08,SSW,205,0.6,3.5,96,0.02,-RA,,0.02,0.0,WeatherDisplay:10.37,2013-05-25 02:26:00,
2013-05-24 21:31:00,71.0,69.8,30.08,SSW,203,1.1,2.3,96,0.02,OVC,,0.02,0.0,WeatherDisplay:10.37,2013-05-25 02:31:00,
2013-05-24 21:36:00,71.3,70.1,30.08,SSW,198,1.4,4.6,96,0.02,OVC,,0.02,0.0,WeatherDisplay:10.37,2013-05-25 02:36:00,
2013-05-24 21:41:00,71.7,70.2,30.08,South,190,1.0,4.0,95,0.02,OVC,,0.02,0.0,WeatherDisplay:10.37,2013-05-25 02:41:00,
2013-05-24 21:46:00,71.9,70.4,30.08,South,183,0.1,4.6,95,0.02,BKN,,0.02,0.0,WeatherDisplay:10.37,2013-05-25 02:46:00,
2013-05-24 21:51:00,72.0,70.5,30.08,East,97,3.1,3.5,95,0.02,BKN,,0.02,0.0,WeatherDisplay:10.37,2013-05-25 02:51:00,
2013-05-24 21:56:00,72.1,70.3,30.09,East,99,1.9,2.3,94,0.00,BKN,,0.02,0.0,WeatherDisplay:10.37,2013-05-25 02:56:00,
2013-05-24 22:01:00,72.1,70.3,30.09,ESE,104,3.1,5.8,94,0.00,BKN,,0.02,0.0,WeatherDisplay:10.37,2013-05-25 03:01:00,
2013-05-24 22:06:00,72.3,70.2,30.11,South,185,8.1,16.0,93,0.00,BKN,,0.02,0.0,WeatherDisplay:10.37,2013-05-25 03:06:00,
2013-05-24 22:11:00,70.8,67.1,30.12,SW,218,19.5,24.2,88,0.00,BKN,,0.02,0.0,WeatherDisplay:10.37,2013-05-25 03:11:00,
2013-05-24 22:16:00,69.6,65.9,30.13,WSW,238,12.8,17.3,88,0.00,BKN,,0.02,0.0,WeatherDisplay:10.37,2013-05-25 03:16:00,
2013-05-24 22:21:00,68.8,65.4,30.13,SSW,199,3.3,11.5,89,0.00,BKN,,0.02,0.0,WeatherDisplay:10.37,2013-05-25 03:21:00,
2013-05-24 22:26:00,68.2,65.2,30.13,SSW,204,5.3,5.8,90,0.00,BKN,,0.02,0.0,WeatherDisplay:10.37,2013-05-25 03:26:00,
2013-05-24 22:31:00,67.8,64.8,30.13,SSW,201,3.3,8.1,90,0.00,OVC,,0.02,0.0,WeatherDisplay:10.37,2013-05-25 03:31:00,
2013-05-24 22:36:00,67.5,64.8,30.14,SSW,201,0.3,3.5,91,0.00,OVC,,0.02,0.0,WeatherDisplay:10.37,2013-05-25 03:36:00,
2013-05-24 22:41:00,67.4,65.3,30.14,SSW,201,0.1,1.1,93,0.00,OVC,,0.02,0.0,WeatherDisplay:10.37,2013-05-25 03:41:00,
2013-05-24 22:46:00,67.2,65.1,30.12,SSW,201,0.0,0.0,93,0.00,OVC,,0.02,0.0,WeatherDisplay:10.37,2013-05-25 03:46:00,
2013-05-24 22:51:00,67.1,65.0,30.12,SSW,201,0.0,0.0,93,0.00,OVC,,0.02,0.0,WeatherDisplay:10.37,2013-05-25 03:51:00,
2013-05-24 22:56:00,67.0,65.2,30.11,SSW,201,0.5,2.0,94,0.00,OVC,,0.02,0.0,WeatherDisplay:10.37,2013-05-25 03:56:00,
2013-05-24 23:01:00,66.9,65.1,30.11,SSW,201,0.0,1.1,94,0.00,OVC,,0.02,0.0,WeatherDisplay:10.37,2013-05-25 04:01:00,
2013-05-24 23:06:00,66.7,64.9,30.11,SSW,201,0.0,0.0,94,0.00,OVC,,0.02,0.0,WeatherDisplay:10.37,2013-05-25 04:06:00,
2013-05-24 23:11:00,66.6,65.1,30.11,SSW,201,0.6,3.5,95,0.00,OVC,,0.02,0.0,WeatherDisplay:10.37,2013-05-25 04:11:00,
2013-05-24 23:16:00,66.5,65.0,30.11,SSW,201,1.4,3.0,95,0.00,OVC,,0.02,0.0,WeatherDisplay:10.37,2013-05-25 04:16:00,
2013-05-24 23:21:00,66.4,64.9,30.12,SSW,201,0.2,2.3,95,0.00,OVC,,0.02,0.0,WeatherDisplay:10.37,2013-05-25 04:21:00,
2013-05-24 23:26:00,66.5,65.0,30.12,SSW,200,2.4,3.5,95,0.00,OVC,,0.02,0.0,WeatherDisplay:10.37,2013-05-25 04:26:00,
2013-05-24 23:31:00,66.3,64.8,30.13,SSW,199,0.0,0.0,95,0.00,BKN,,0.02,0.0,WeatherDisplay:10.37,2013-05-25 04:31:00,
2013-05-24 23:36:00,66.4,64.9,30.12,South,183,0.1,2.3,95,0.00,BKN,,0.02,0.0,WeatherDisplay:10.37,2013-05-25 04:36:00,
2013-05-24 23:41:00,66.5,65.0,30.13,South,183,0.0,0.0,95,0.00,BKN,,0.02,0.0,WeatherDisplay:10.37,2013-05-25 04:41:00,
2013-05-24 23:46:00,66.5,64.7,30.13,South,183,0.6,2.3,94,0.00,SCT,,0.02,0.0,WeatherDisplay:10.37,2013-05-25 04:46:00,
2013-05-24 23:51:00,66.5,64.7,30.13,South,183,1.7,3.5,94,0.00,SCT,,0.02,0.0,WeatherDisplay:10.37,2013-05-25 04:51:00,
2013-05-24 23:56:00,66.5,64.7,30.13,South,183,0.0,0.0,94,0.00,SCT,,0.02,0.0,WeatherDisplay:10.37,2013-05-25 04:56:00,